Hourly Data Report for January 22, 2020

TORONTO CITY
ONTARIO
Current Station Operator: ECCC - MSC

43°40'00.000" N
79°24'00.000" W
112.50 m
6158355
71508
XTO

Download Data

Hourly Data (January 2020)
Hourly Data Report for January 22, 2020
TIME
LST
Temp Definition
°C
Dew Point Definition
°C
Rel Hum Definition
%
Precip. Amount Definition
mm

Wind Dir Definition
10's deg

Wind Spd Definition
km/h
Visibility Definition
km
Stn Press Definition
kPa
Hmdx Definition


Wind Chill Definition


Weather Definition


00:00 -5.2 -10.1 68 0.0       101.44     LegendNANA
01:00 -5.2 -9.9 70 0.0       101.40     LegendNANA
02:00 -5.0 -9.7 70 0.0       101.43     LegendNANA
03:00 -5.1 -9.3 72 0.0       101.43     LegendNANA
04:00 -4.6 -8.8 72 0.0       101.38     LegendNANA
05:00 -4.3 -8.5 73 0.0       101.35     LegendNANA
06:00 -4.6 -8.3 75 0.0       101.29     LegendNANA
07:00 -4.3 -7.9 76 0.0       101.34     LegendNANA
08:00 -3.9 -7.4 77 0.0       101.33     LegendNANA
09:00 -2.8 -6.2 77 0.0       101.38     LegendNANA
10:00 -1.4 -6.0 71 0.0       101.36     LegendNANA
11:00 -0.7 -5.7 69 0.0       101.37     LegendNANA
12:00 0.4 -5.4 65 0.0       101.28     LegendNANA
13:00 0.4 -5.1 66 0.0       101.21     LegendNANA
14:00 0.5 -4.2 70 0.0       101.17     LegendNANA
15:00 1.2 -3.7 70 0.0       101.15     LegendNANA
16:00 0.5 -3.8 73 0.0       101.16     LegendNANA
17:00 0.5 -5.2 66 0.0       101.17     LegendNANA
18:00 0.0 -5.6 66 0.0       101.17     LegendNANA
19:00 -0.4 -5.8 67 0.0       101.19     LegendNANA
20:00 -0.7 -5.7 69 0.0       101.23     LegendNANA
21:00 -0.9 -5.8 69 0.0       101.20     LegendNANA
22:00 -1.2 -6.3 68 0.0       101.17     LegendNANA
23:00 -1.2 -6.6 67 0.0       101.17     LegendNANA

Notes on Data Quality.

Legend

  • E = Estimated
  • M = Missing
  • NA = Not Available*
  • [empty] = Indicates an unobserved value
Date modified: